TimeCST,TemperatureF,Dew PointF,Humidity,Sea Level PressureIn,VisibilityMPH,Wind Direction,Wind SpeedMPH,Gust SpeedMPH,PrecipitationIn,Events,Conditions,WindDirDegrees,DateUTC
12:15 AM,35.8,27.5,72,30.02,10.0,ENE,3.5,-,N/A,,Clear,60,2014-02-23 06:15:00
12:35 AM,38.8,26.6,61,30.02,10.0,Calm,Calm,-,N/A,,Clear,0,2014-02-23 06:35:00
12:55 AM,39.2,26.6,61,30.02,10.0,ESE,3.5,-,N/A,,Clear,110,2014-02-23 06:55:00
1:15 AM,38.8,27.1,63,30.02,10.0,Calm,Calm,-,N/A,,Clear,0,2014-02-23 07:15:00
1:35 AM,38.3,27.9,66,30.02,10.0,Calm,Calm,-,N/A,,Clear,0,2014-02-23 07:35:00
1:55 AM,40.6,27.7,60,30.02,10.0,Calm,Calm,-,N/A,,Clear,0,2014-02-23 07:55:00
2:15 AM,49.1,24.6,38,30.01,10.0,WSW,5.8,-,N/A,,Clear,240,2014-02-23 08:15:00
2:35 AM,54.3,23.5,30,30.02,10.0,SW,8.1,-,N/A,,Clear,220,2014-02-23 08:35:00
2:55 AM,54.5,23.5,30,30.02,10.0,SW,8.1,-,N/A,,Clear,220,2014-02-23 08:55:00
3:15 AM,50.5,25.3,38,30.02,10.0,Calm,Calm,-,N/A,,Clear,0,2014-02-23 09:15:00
3:35 AM,38.1,29.3,71,30.03,10.0,Calm,Calm,-,N/A,,Clear,0,2014-02-23 09:35:00
3:55 AM,39.0,28.0,65,30.03,10.0,Calm,Calm,-,N/A,,Clear,0,2014-02-23 09:55:00
4:15 AM,37.9,28.9,70,30.03,10.0,Calm,Calm,-,N/A,,Clear,0,2014-02-23 10:15:00
4:35 AM,37.6,29.5,73,30.03,10.0,Calm,Calm,-,N/A,,Clear,0,2014-02-23 10:35:00
4:55 AM,37.8,29.7,73,30.04,10.0,Calm,Calm,-,N/A,,Clear,0,2014-02-23 10:55:00
5:15 AM,36.9,30.9,79,30.05,10.0,Calm,Calm,-,N/A,,Clear,0,2014-02-23 11:15:00
5:35 AM,37.6,30.4,75,30.05,10.0,Calm,Calm,-,N/A,,Clear,0,2014-02-23 11:35:00
5:55 AM,37.9,31.1,76,30.05,10.0,Calm,Calm,-,N/A,,Clear,0,2014-02-23 11:55:00
6:15 AM,38.1,31.3,76,30.05,10.0,Calm,Calm,-,N/A,,Clear,0,2014-02-23 12:15:00
6:35 AM,38.5,32.7,80,30.05,10.0,Calm,Calm,-,N/A,,Mostly Cloudy,0,2014-02-23 12:35:00
6:50 AM,39.9,30.9,70,30.05,10.0,Calm,Calm,-,N/A,,Mostly Cloudy,0,2014-02-23 12:50:00
7:15 AM,40.1,33.6,78,30.05,10.0,Calm,Calm,-,N/A,,Clear,0,2014-02-23 13:15:00
7:35 AM,41.0,32.5,72,30.05,10.0,Calm,Calm,-,N/A,,Clear,0,2014-02-23 13:35:00
7:55 AM,43.0,33.6,70,30.06,10.0,Calm,Calm,-,N/A,,Clear,0,2014-02-23 13:55:00
8:15 AM,45.5,32.0,59,30.05,10.0,Calm,Calm,-,N/A,,Clear,0,2014-02-23 14:15:00
8:35 AM,47.1,32.4,57,30.05,10.0,Calm,Calm,-,N/A,,Clear,0,2014-02-23 14:35:00
8:55 AM,51.6,31.3,46,30.04,10.0,Calm,Calm,-,N/A,,Clear,0,2014-02-23 14:55:00
9:15 AM,55.4,31.8,41,30.03,10.0,Calm,Calm,-,N/A,,Clear,0,2014-02-23 15:15:00
9:35 AM,57.2,28.8,34,30.02,10.0,Calm,Calm,-,N/A,,Clear,0,2014-02-23 15:35:00
9:55 AM,58.8,28.9,32,30.02,10.0,Calm,Calm,-,N/A,,Clear,0,2014-02-23 15:55:00
10:15 AM,59.9,28.8,31,30.02,10.0,SSE,5.8,-,N/A,,Clear,150,2014-02-23 16:15:00
10:35 AM,61.0,29.7,31,30.02,10.0,SSE,5.8,-,N/A,,Clear,150,2014-02-23 16:35:00
10:55 AM,61.9,30.2,30,30.01,10.0,South,8.1,-,N/A,,Clear,170,2014-02-23 16:55:00
11:15 AM,62.6,31.1,31,30.00,10.0,South,6.9,-,N/A,,Clear,190,2014-02-23 17:15:00
11:30 AM,63.0,30.9,30,29.99,10.0,SSE,6.9,-,N/A,,Clear,160,2014-02-23 17:30:00
11:55 AM,63.7,31.1,29,29.98,10.0,South,6.9,-,N/A,,Clear,170,2014-02-23 17:55:00
12:15 PM,64.2,29.8,27,29.98,10.0,West,9.2,-,N/A,,Clear,270,2014-02-23 18:15:00
12:35 PM,64.9,30.9,28,29.96,10.0,West,3.5,-,N/A,,Clear,280,2014-02-23 18:35:00
12:55 PM,65.5,31.5,28,29.95,10.0,WNW,9.2,18.4,N/A,,Clear,300,2014-02-23 18:55:00
1:15 PM,66.2,31.8,28,29.94,10.0,SE,3.5,21.9,N/A,,Clear,140,2014-02-23 19:15:00
1:35 PM,66.0,31.5,28,29.93,10.0,South,11.5,17.3,N/A,,Clear,180,2014-02-23 19:35:00
1:55 PM,66.2,31.5,27,29.93,10.0,SE,3.5,-,N/A,,Clear,130,2014-02-23 19:55:00
2:15 PM,66.4,31.5,27,29.93,10.0,South,11.5,-,N/A,,Clear,170,2014-02-23 20:15:00
2:35 PM,67.3,32.2,27,29.92,10.0,SSW,8.1,-,N/A,,Clear,200,2014-02-23 20:35:00
2:55 PM,67.1,31.8,27,29.92,10.0,SSE,9.2,-,N/A,,Scattered Clouds,160,2014-02-23 20:55:00
3:15 PM,67.5,31.6,26,29.92,10.0,WSW,5.8,-,N/A,,Mostly Cloudy,250,2014-02-23 21:15:00
3:35 PM,67.1,31.3,26,29.92,10.0,West,6.9,19.6,N/A,,Scattered Clouds,280,2014-02-23 21:35:00
3:55 PM,66.4,31.6,27,29.92,10.0,WNW,6.9,-,N/A,,Clear,290,2014-02-23 21:55:00
4:10 PM,65.3,32.4,29,29.92,10.0,NW,8.1,-,N/A,,Clear,310,2014-02-23 22:10:00
4:35 PM,63.7,32.5,31,29.92,10.0,NNW,9.2,-,N/A,,Clear,330,2014-02-23 22:35:00
4:55 PM,60.1,34.0,38,29.94,10.0,NW,11.5,18.4,N/A,,Clear,320,2014-02-23 22:55:00
5:15 PM,57.6,33.4,40,29.96,10.0,Calm,Calm,-,N/A,,Clear,0,2014-02-23 23:15:00
5:35 PM,56.1,34.0,43,29.97,10.0,North,6.9,10.4,N/A,,Clear,350,2014-02-23 23:35:00
5:55 PM,54.5,33.8,46,29.98,10.0,North,10.4,16.1,N/A,,Scattered Clouds,10,2014-02-23 23:55:00
6:15 PM,53.2,34.2,48,30.00,10.0,North,10.4,16.1,N/A,,Overcast,360,2014-02-24 00:15:00
6:35 PM,52.7,33.8,49,30.01,10.0,North,8.1,-,N/A,,Overcast,360,2014-02-24 00:35:00
6:55 PM,51.3,33.8,51,30.02,10.0,North,13.8,23.0,N/A,,Overcast,10,2014-02-24 00:55:00
7:15 PM,49.6,33.8,54,30.03,10.0,North,12.7,19.6,N/A,,Overcast,360,2014-02-24 01:15:00
7:35 PM,48.4,33.8,57,30.04,10.0,North,12.7,20.7,N/A,,Overcast,350,2014-02-24 01:35:00
7:55 PM,47.5,33.6,59,30.05,10.0,NNW,10.4,19.6,N/A,,Overcast,340,2014-02-24 01:55:00
8:15 PM,46.9,32.9,58,30.07,10.0,North,13.8,18.4,N/A,,Overcast,360,2014-02-24 02:15:00
8:35 PM,46.4,32.9,59,30.07,10.0,North,8.1,-,N/A,,Overcast,350,2014-02-24 02:35:00
8:55 PM,46.2,32.9,60,30.08,10.0,NNW,8.1,19.6,N/A,,Overcast,340,2014-02-24 02:55:00
9:15 PM,45.7,33.1,61,30.07,10.0,NNW,8.1,-,N/A,,Overcast,340,2014-02-24 03:15:00
9:35 PM,45.5,33.3,62,30.07,10.0,North,8.1,17.3,N/A,,Overcast,10,2014-02-24 03:35:00
9:55 PM,45.0,33.8,65,30.08,10.0,North,8.1,-,N/A,,Overcast,360,2014-02-24 03:55:00
10:15 PM,44.6,34.0,66,30.08,10.0,North,6.9,-,N/A,,Overcast,360,2014-02-24 04:15:00
10:35 PM,44.1,33.8,67,30.09,10.0,North,12.7,18.4,N/A,,Overcast,360,2014-02-24 04:35:00
10:55 PM,43.2,34.3,71,30.09,10.0,North,12.7,23.0,N/A,,Light Drizzle,10,2014-02-24 04:55:00
11:15 PM,41.9,34.9,76,30.10,10.0,North,12.7,16.1,N/A,,Overcast,360,2014-02-24 05:15:00
11:35 PM,40.6,35.1,80,30.10,10.0,North,10.4,17.3,N/A,,Overcast,350,2014-02-24 05:35:00
11:55 PM,39.7,34.9,83,30.11,10.0,North,13.8,-,N/A,,Overcast,350,2014-02-24 05:55:00